This is the latest recevied weather packets stored in our database for station/object AB1AU. If no packets are shown the sender has not sent any weather packets the latest 1 day(s).
| Time | Temp. | Humidity | Pressure | Rain* | Wind** | Luminosity | Snow |
|---|---|---|---|---|---|---|---|
| 1778024067 | 18.89° C | 62% | 1007.9 hPa | 0 mm | 0 m/s | 4 W/m² | - |
| 1778023764 | 19.44° C | 64% | 1007.8 hPa | 0 mm | 0 m/s | 4 W/m² | - |
| 1778023462 | 19.44° C | 63% | 1007.5 hPa | 0 mm | 0 m/s | 6 W/m² | - |
| 1778023159 | 19.44° C | 60% | 1007.6 hPa | 0 mm | 0 m/s | 3 W/m² | - |
| 1778022856 | 20° C | 59% | 1007.3 hPa | 0 mm | 0 m/s | 4 W/m² | - |
| 1778022554 | 20° C | 57% | 1007.4 hPa | 0 mm | 0 m/s | 3 W/m² | - |
| 1778022262 | 20° C | 54% | 1007.3 hPa | 0 mm | 1.34 m/s, 219° | 3 W/m² | - |
| 1778021948 | 20° C | 53% | 1007.2 hPa | 0 mm | 0.89 m/s, 209° | 4 W/m² | - |
| 1778021645 | 20° C | 53% | 1007.2 hPa | 0 mm | 2.68 m/s, 236° | 3 W/m² | - |
| 1778021340 | 19.44° C | 54% | 1007 hPa | 0 mm | 0.89 m/s, 170° | 4 W/m² | - |
| 1778021038 | 20° C | 54% | 1007.2 hPa | 0 mm | 1.79 m/s, 273° | 3 W/m² | - |
| 1778020735 | 20° C | 53% | 1005.2 hPa | 0 mm | 2.24 m/s, 213° | 7 W/m² | - |
| 1778020432 | 20° C | 53% | 1004.9 hPa | 0 mm | 1.79 m/s, 63° | 17 W/m² | - |
| 1778020128 | 20° C | 53% | 1004.9 hPa | 0 mm | 1.34 m/s, 201° | 37 W/m² | - |
| 1778019824 | 20° C | 52% | 1004.8 hPa | 0 mm | 1.79 m/s, 121° | 43 W/m² | - |
| 1778019521 | 20.56° C | 52% | 1004.7 hPa | 0 mm | 0.89 m/s, 89° | 49 W/m² | - |
| 1778019218 | 20.56° C | 51% | 1004.6 hPa | 0 mm | 1.34 m/s, 205° | 57 W/m² | - |
| 1778018915 | 20.56° C | 51% | 1004.7 hPa | 0 mm | 4.02 m/s, 94° | 62 W/m² | - |
| 1778018612 | 21.11° C | 51% | 1004.3 hPa | 0 mm | 2.68 m/s, 251° | 69 W/m² | - |
| 1778018310 | 21.11° C | 50% | 1004.4 hPa | 0 mm | 2.24 m/s, 168° | 72 W/m² | - |
| 1778018008 | 21.11° C | 50% | 1004.1 hPa | 0 mm | 2.24 m/s, 141° | 72 W/m² | - |
| 1778017706 | 21.11° C | 49% | 1004 hPa | 0 mm | 1.79 m/s, 223° | 74 W/m² | - |
| 1778017403 | 21.67° C | 49% | 1004.2 hPa | 0 mm | 2.24 m/s, 207° | 74 W/m² | - |
| 1778017100 | 21.67° C | 49% | 1004.1 hPa | 0 mm | 1.79 m/s, 128° | 83 W/m² | - |
| 1778016798 | 21.67° C | 49% | 1004.3 hPa | 0 mm | 2.24 m/s, 225° | 76 W/m² | - |
* Rain latest hour (hover to see other rain measurements)
** Current wind speed in m/s (hover to see current wind gust speed)